FW4387 Weather Reports


time (UTC)temp
C
wind
direction
speed
KPH
gust
KPH
rain 1hr
cm
rain 24hr
cm
rain mn
cm
humidity
%
barometer
mb
20260503050004 2 0.0 0.0 0.00 0.00 0.00 80 1017.0
20260503044502 3 0.0 0.0 0.00 0.00 0.00 79 1017.1
20260503043002 3 0.0 0.0 0.00 0.00 0.00 79 1017.0
20260503041500 3 0.0 0.0 0.00 0.00 0.00 80 1016.9
20260503040100 3 0.0 0.0 0.00 0.00 0.00 80 1017.1
20260503034502 3 0.0 0.0 0.00 0.00 0.00 80 1017.0
20260503033002 3 0.0 0.0 0.00 0.00 0.00 79 1017.2
20260503031502 3 0.0 0.0 0.00 0.00 0.00 79 1017.2
20260503030003 3 0.0 0.0 0.00 0.00 0.00 79 1017.3
20260503024501 3 0.0 0.0 0.00 0.00 0.00 78 1017.4
20260503023100 3 0.0 0.0 0.00 0.00 0.00 76 1017.5
20260503021559 3 0.0 0.0 0.00 0.03 0.00 72 1017.4
20260503013056 6 0.0 0.0 0.00 0.03 0.00 66 1017.1
20260503011622 6 0.0 0.0 0.00 0.08 0.00 63 1017.0
20260503010056 6 0.0 0.0 0.00 0.08 0.00 59 1017.0
20260503003057 7 0.0 0.0 0.00 0.08 0.00 59 1016.9
20260503001555 7 0.0 0.0 0.00 0.08 0.00 59 1016.8
20260503000054 7 0.0 0.0 0.00 0.08 0.00 58 1016.7
20260502233057 7 0.0 0.0 0.00 0.08 0.00 55 1016.5
20260502231554 7 0.0 0.0 0.00 0.08 0.00 55 1016.5
20260502230059 7 0.0 0.0 0.00 0.08 0.00 54 1016.6
20260502223102 8 0.0 0.0 0.00 0.08 0.00 55 1016.5
20260502221552 8 0.0 0.0 0.00 0.08 0.00 53 1016.5
20260502220100 8 0.0 0.0 0.00 0.08 0.00 53 1016.4
20260502213058 8 0.0 0.0 0.00 0.08 0.00 51 1016.2
20260502211557 9 0.0 0.0 0.00 0.08 0.00 52 1016.1
20260502210055 8 0.0 0.0 0.00 0.08 0.00 50 1016.2
20260502203119 9 0.0 0.0 0.00 0.08 0.00 52 1016.2
20260502201618 9 0.0 0.0 0.00 0.08 0.00 52 1016.2
20260502200104 10 0.0 0.0 0.00 0.08 0.00 52 1016.3
20260502193058 9 0.0 0.0 0.00 0.08 0.00 53 1016.5
20260502191545 10 0.0 0.0 0.00 0.08 0.00 52 1016.5
20260502190046 8 0.0 0.0 0.00 0.08 0.00 54 1016.6
20260502183047 9 0.0 0.0 0.00 0.08 0.00 56 1016.6
20260502181546 9 0.0 0.0 0.00 0.08 0.00 53 1016.6
20260502163034 8 0.0 0.0 0.00 0.08 0.00 58 1017.0
20260502161534 8 0.0 0.0 0.00 0.13 0.00 57 1017.1
20260502151526 7 0.0 0.0 0.00 0.23 0.00 66 1017.2
20260502123059 3 0.0 0.0 0.00 0.23 0.00 90 1016.7
20260502121557 2 0.0 0.0 0.00 0.23 0.23 92 1016.5
20260502113111 0 0.0 0.0 0.00 0.23 0.23 90 1016.4
20260502111602 0 0.0 0.0 0.00 0.23 0.23 90 1016.1
20260502110056 0 0.0 0.0 0.00 0.23 0.23 90 1016.1
20260502103054 0 0.0 0.0 0.00 0.23 0.23 90 1016.2
20260502101607 0 0.0 0.0 0.00 0.23 0.23 90 1016.2
20260502070100 2 0.0 0.0 0.00 0.23 0.23 89 1016.0
20260502063040 2 0.0 0.0 0.00 0.23 0.23 89 1016.1
20260502061542 2 0.0 0.0 0.00 0.23 0.23 89 1016.2
20260502060043 2 0.0 0.0 0.00 0.23 0.23 89 1016.2
20260502053037 2 0.0 0.0 0.00 0.23 0.23 89 1016.3
20260502051538 2 0.0 0.0 0.00 0.23 0.23 88 1016.3